FW3157 Weather Reports


Display with metric or nautical units.
time (UTC)temp
F
wind
direction
speed
MPH
gust
MPH
rain 1hr
in
rain 24hr
in
rain mn
in
humidity
%
barometer
mb
20260906041905 73 257 0.0 1.0 0.00 0.00 0.00 70 1016.4
20260906041400 73 257 0.0 1.0 0.00 0.00 0.00 70 1016.3
20260906040853 73 257 0.0 2.0 0.00 0.00 0.00 70 1016.4
20260906040347 73 257 0.0 2.0 0.00 0.00 0.00 70 1016.3
20260906035840 73 257 1.0 2.0 0.00 0.00 0.00 70 1016.2
20260906035335 74 257 1.0 2.0 0.00 0.00 0.00 70 1016.2
20260906034829 74 271 1.0 3.0 0.00 0.00 0.00 69 1016.2
20260906034323 74 271 2.0 3.0 0.00 0.00 0.00 69 1016.2
20260906034044 74 276 2.0 4.0 0.00 0.00 0.00 69 1016.1
20260906033311 74 269 1.0 4.0 0.00 0.00 0.00 69 1016.1
20260906032805 74 266 0.0 3.0 0.00 0.00 0.00 69 1016.1
20260906032502 74 212 0.0 2.0 0.00 0.00 0.00 66 1016.0
20260906032349 74 212 0.0 1.0 0.00 0.00 0.00 67 1016.1
20260906031247 75 212 0.0 2.0 0.00 0.00 0.00 66 1016.0
20260906030741 75 228 1.0 2.0 0.00 0.00 0.00 68 1016.0
20260906030235 75 228 1.0 3.0 0.00 0.00 0.00 67 1015.9
20260906025729 75 265 0.0 3.0 0.00 0.00 0.00 64 1015.9
20260906025223 75 347 0.0 1.0 0.00 0.00 0.00 57 1015.8
20260906024716 74 349 0.0 0.0 0.00 0.00 0.00 56 1015.8
20260906024211 74 349 0.0 0.0 0.00 0.00 0.00 56 1015.8
20260906023705 75 349 0.0 0.0 0.00 0.00 0.00 54 1015.8
20260906023159 75 349 0.0 0.0 0.00 0.00 0.00 53 1015.7
20260906022653 75 349 0.0 0.0 0.00 0.00 0.00 53 1015.7
20260906022146 75 349 0.0 1.0 0.00 0.00 0.00 52 1015.7
20260906021641 75 349 0.0 1.0 0.00 0.00 0.00 52 1015.6
20260906021135 76 349 0.0 1.0 0.00 0.00 0.00 52 1015.7
20260906020629 76 349 0.0 1.0 0.00 0.00 0.00 51 1015.6
20260906020122 76 349 1.0 1.0 0.00 0.00 0.00 50 1015.7
20260906015616 76 347 1.0 1.0 0.00 0.00 0.00 50 1015.6
20260906015111 76 334 0.0 1.0 0.00 0.00 0.00 50 1015.6
20260906014605 76 334 0.0 1.0 0.00 0.00 0.00 49 1015.7
20260906014059 76 334 0.0 1.0 0.00 0.00 0.00 49 1015.7
20260906013552 76 334 0.0 1.0 0.00 0.00 0.00 49 1015.8
20260906013309 76 334 0.0 1.0 0.00 0.00 0.00 48 1015.8
20260906012540 76 334 0.0 1.0 0.00 0.00 0.00 48 1015.7
20260906012035 76 334 0.0 1.0 0.00 0.00 0.00 48 1015.7
20260906011529 76 334 0.0 2.0 0.00 0.00 0.00 47 1015.7
20260906011023 76 334 1.0 2.0 0.00 0.00 0.00 47 1015.7
20260906010739 76 334 1.0 2.0 0.00 0.00 0.00 50 1015.7
20260906010011 76 85 0.0 1.0 0.00 0.00 0.00 50 1015.7
20260906005504 76 85 0.0 1.0 0.00 0.00 0.00 51 1015.7
20260906004958 76 85 0.0 1.0 0.00 0.00 0.00 51 1015.7
20260906004452 76 85 0.0 1.0 0.00 0.00 0.00 50 1015.7
20260906003947 76 85 0.0 1.0 0.00 0.00 0.00 50 1015.6
20260906003441 76 85 0.0 2.0 0.00 0.00 0.00 49 1015.7
20260906002934 76 85 0.0 2.0 0.00 0.00 0.00 49 1015.7
20260906002429 76 86 0.0 0.0 0.00 0.00 0.00 48 1015.6
20260906001923 76 85 0.0 2.0 0.00 0.00 0.00 48 1015.7
20260906001416 77 85 1.0 2.0 0.00 0.00 0.00 48 1015.7
20260906000910 77 86 1.0 3.0 0.00 0.00 0.00 47 1015.7
20260906000407 77 7 1.0 3.0 0.00 0.00 0.00 46 1015.7
20260905235859 78 352 0.0 1.0 0.00 0.00 0.00 46 1015.6
20260905235353 78 352 0.0 1.0 0.00 0.00 0.00 47 1015.6
20260905234847 77 352 0.0 1.0 0.00 0.00 0.00 47 1015.6
20260905234342 77 352 0.0 1.0 0.00 0.00 0.00 47 1015.6
20260905233834 77 352 0.0 1.0 0.00 0.00 0.00 47 1015.8
20260905233328 77 352 0.0 1.0 0.00 0.00 0.00 46 1015.9
20260905232829 78 350 1.0 3.0 0.00 0.00 0.00 47 1015.8
20260905232329 78 352 1.0 3.0 0.00 0.00 0.00 46 1015.9
20260905231829 79 302 1.0 3.0 0.00 0.00 0.00 45 1015.9
20260905231327 79 98 1.0 2.0 0.00 0.00 0.00 44 1015.8
20260905230825 79 98 2.0 3.0 0.00 0.00 0.00 43 1015.7
20260905230323 79 98 2.0 4.0 0.00 0.00 0.00 43 1015.8
20260905225821 79 92 2.0 4.0 0.00 0.00 0.00 43 1015.8
20260905225319 79 100 1.0 3.0 0.00 0.00 0.00 43 1015.9
20260905224817 79 101 2.0 3.0 0.00 0.00 0.00 43 1015.9
20260905224316 79 98 2.0 3.0 0.00 0.00 0.00 43 1015.9
20260905223813 79 101 1.0 2.0 0.00 0.00 0.00 44 1016.0
20260905223312 79 101 0.0 1.0 0.00 0.00 0.00 45 1016.0
20260905222813 79 101 0.0 1.0 0.00 0.00 0.00 45 1016.0
20260905222312 79 101 0.0 2.0 0.00 0.00 0.00 45 1016.0
20260905222126 79 101 0.0 2.0 0.00 0.00 0.00 45 1016.0
20260905222027 80 101 0.0 1.0 0.00 0.00 0.00 44 1015.9
20260905220813 80 101 0.0 3.0 0.00 0.00 0.00 43 1015.8
20260905220311 80 101 1.0 3.0 0.00 0.00 0.00 42 1015.8
20260905215809 80 123 1.0 3.0 0.00 0.00 0.00 43 1015.8
20260905215310 80 73 1.0 2.0 0.00 0.00 0.00 44 1015.8
20260905214804 79 74 1.0 2.0 0.00 0.00 0.00 44 1015.9
20260905214301 79 74 1.0 2.0 0.00 0.00 0.00 44 1016.0
20260905213801 80 73 1.0 3.0 0.00 0.00 0.00 44 1016.0
20260905213301 80 70 1.0 4.0 0.00 0.00 0.00 44 1016.1
20260905212758 81 101 1.0 4.0 0.00 0.00 0.00 42 1016.1
20260905212259 81 113 3.0 5.0 0.00 0.00 0.00 41 1016.2
20260905212235 81 101 4.0 5.0 0.00 0.00 0.00 40 1016.1
20260905211259 81 99 3.0 5.0 0.00 0.00 0.00 41 1016.1
20260905210759 81 103 2.0 4.0 0.00 0.00 0.00 42 1016.1
20260905210257 81 98 2.0 3.0 0.00 0.00 0.00 41 1016.2
20260905205756 81 113 1.0 2.0 0.00 0.00 0.00 43 1016.2
20260905205513 81 113 1.0 2.0 0.00 0.00 0.00 43 1016.3
20260905204755 81 113 1.0 1.0 0.00 0.00 0.00 44 1016.2
20260905204254 81 113 0.0 1.0 0.00 0.00 0.00 44 1016.3
20260905203755 81 113 0.0 2.0 0.00 0.00 0.00 43 1016.3
20260905203253 82 113 1.0 3.0 0.00 0.00 0.00 41 1016.3
20260905202753 82 113 2.0 5.0 0.00 0.00 0.00 41 1016.3
20260905202253 82 115 3.0 5.0 0.00 0.00 0.00 40 1016.2
20260905202018 82 96 3.0 5.0 0.00 0.00 0.00 40 1016.2
20260905201504 82 113 3.0 6.0 0.00 0.00 0.00 41 1016.2
20260905200740 82 111 4.0 6.0 0.00 0.00 0.00 42 1016.2
20260905200453 82 113 4.0 7.0 0.00 0.00 0.00 42 1016.2
20260905200211 82 115 5.0 8.0 0.00 0.00 0.00 42 1016.2
20260905195223 82 94 4.0 8.0 0.00 0.00 0.00 43 1016.2
20260905194717 82 114 3.0 8.0 0.00 0.00 0.00 43 1016.2
20260905194211 82 113 2.0 5.0 0.00 0.00 0.00 44 1016.2
20260905193704 82 109 3.0 6.0 0.00 0.00 0.00 44 1016.2
20260905193159 82 91 3.0 7.0 0.00 0.00 0.00 44 1016.2
20260905192659 82 107 4.0 7.0 0.00 0.00 0.00 44 1016.3
20260905192159 82 98 4.0 7.0 0.00 0.00 0.00 44 1016.3
20260905191658 82 117 4.0 6.0 0.00 0.00 0.00 44 1016.3
20260905191427 82 113 4.0 6.0 0.00 0.00 0.00 44 1016.3
20260905190659 82 95 3.0 5.0 0.00 0.00 0.00 44 1016.3
20260905190156 82 82 3.0 5.0 0.00 0.00 0.00 43 1016.3
20260905185657 82 91 2.0 5.0 0.00 0.00 0.00 42 1016.3
20260905185157 83 79 2.0 5.0 0.00 0.00 0.00 42 1016.3
20260905184657 83 108 3.0 5.0 0.00 0.00 0.00 42 1016.3
20260905184156 83 96 3.0 6.0 0.00 0.00 0.00 42 1016.3
20260905183657 83 107 3.0 6.0 0.00 0.00 0.00 42 1016.2
20260905183155 83 93 3.0 5.0 0.00 0.00 0.00 42 1016.1
20260905182655 83 103 3.0 5.0 0.00 0.00 0.00 42 1016.1
20260905182155 83 120 2.0 5.0 0.00 0.00 0.00 42 1016.0
20260905181628 83 104 2.0 6.0 0.00 0.00 0.00 42 1015.9
20260905181129 83 180 2.0 6.0 0.00 0.00 0.00 41 1015.9
20260905180628 84 124 2.0 6.0 0.00 0.00 0.00 40 1016.0
20260905180129 84 102 2.0 6.0 0.00 0.00 0.00 40 1015.9
20260905175847 84 59 2.0 5.0 0.00 0.00 0.00 40 1015.9
20260905175129 84 146 2.0 5.0 0.00 0.00 0.00 41 1015.8
20260905174628 84 119 2.0 5.0 0.00 0.00 0.00 41 1015.7
20260905174128 84 85 3.0 6.0 0.00 0.00 0.00 40 1015.7
20260905173628 84 237 3.0 6.0 0.00 0.00 0.00 40 1015.7
20260905173129 84 149 2.0 5.0 0.00 0.00 0.00 41 1015.6
20260905172628 85 150 2.0 5.0 0.00 0.00 0.00 42 1015.6
20260905172129 85 113 2.0 4.0 0.00 0.00 0.00 43 1015.6
20260905171850 85 120 2.0 6.0 0.00 0.00 0.00 42 1015.6
20260905171130 85 108 2.0 8.0 0.00 0.00 0.00 41 1015.6
20260905170629 85 235 3.0 8.0 0.00 0.00 0.00 40 1015.6
20260905170129 86 171 3.0 8.0 0.00 0.00 0.00 41 1015.5
20260905165629 86 154 2.0 6.0 0.00 0.00 0.00 41 1015.5
20260905165128 87 143 2.0 8.0 0.00 0.00 0.00 41 1015.5
20260905164629 87 132 3.0 8.0 0.00 0.00 0.00 40 1015.4
20260905164129 88 131 3.0 7.0 0.00 0.00 0.00 39 1015.3
20260905163625 88 199 2.0 7.0 0.00 0.00 0.00 40 1015.3
20260905163125 89 153 2.0 6.0 0.00 0.00 0.00 43 1015.4
20260905162622 89 143 2.0 6.0 0.00 0.00 0.00 40 1015.4
20260905162123 89 165 3.0 9.0 0.00 0.00 0.00 40 1015.2
20260905161623 89 229 3.0 9.0 0.00 0.00 0.00 38 1015.3
20260905161354 89 165 3.0 7.0 0.00 0.00 0.00 39 1015.4
20260905160621 90 181 2.0 7.0 0.00 0.00 0.00 38 1015.4
20260905160118 90 206 2.0 6.0 0.00 0.00 0.00 38 1015.3
20260905155618 90 237 2.0 6.0 0.00 0.00 0.00 38 1015.3
20260905155118 90 110 2.0 6.0 0.00 0.00 0.00 40 1015.3
20260905154620 89 228 3.0 9.0 0.00 0.00 0.00 41 1015.4
20260905154117 89 243 4.0 9.0 0.00 0.00 0.00 41 1015.3
20260905153616 89 232 4.0 8.0 0.00 0.00 0.00 42 1015.3
20260905153116 89 208 3.0 8.0 0.00 0.00 0.00 42 1015.3
20260905152616 89 243 3.0 8.0 0.00 0.00 0.00 44 1015.3
20260905152341 89 138 4.0 9.0 0.00 0.00 0.00 43 1015.3
20260905151615 89 208 5.0 9.0 0.00 0.00 0.00 43 1015.3
20260905151114 90 231 3.0 9.0 0.00 0.00 0.00 43 1015.2
20260905150607 90 262 3.0 9.0 0.00 0.00 0.00 44 1015.2
20260905145556 90 206 4.0 9.0 0.00 0.00 0.00 40 1015.2
20260905145049 91 223 3.0 8.0 0.00 0.00 0.00 40 1015.2
20260905144543 92 206 2.0 8.0 0.00 0.00 0.00 35 1015.3
20260905144306 92 262 1.0 4.0 0.00 0.00 0.00 39 1015.2
20260905143531 92 259 2.0 4.0 0.00 0.00 0.00 36 1015.3
20260905143027 91 248 2.0 6.0 0.00 0.00 0.00 34 1015.4
20260905142520 90 209 3.0 8.0 0.00 0.00 0.00 36 1015.4
20260905142014 90 237 3.0 8.0 0.00 0.00 0.00 37 1015.5
20260905141732 90 205 3.0 8.0 0.00 0.00 0.00 41 1015.5
20260905141002 89 231 4.0 8.0 0.00 0.00 0.00 40 1015.5
20260905140455 90 236 4.0 8.0 0.00 0.00 0.00 43 1015.5
20260905135950 90 232 4.0 8.0 0.00 0.00 0.00 36 1015.6
20260905135444 90 252 3.0 7.0 0.00 0.00 0.00 38 1015.6
20260905135207 90 209 4.0 9.0 0.00 0.00 0.00 36 1015.6
20260905134431 90 233 3.0 8.0 0.00 0.00 0.00 36 1015.7
20260905133926 90 220 3.0 7.0 0.00 0.00 0.00 34 1015.7
20260905133420 90 271 4.0 8.0 0.00 0.00 0.00 35 1015.8
20260905132914 89 258 5.0 8.0 0.00 0.00 0.00 36 1015.9
20260905132408 89 267 5.0 8.0 0.00 0.00 0.00 36 1015.9
20260905131901 90 292 4.0 9.0 0.00 0.00 0.00 33 1016.0
20260905131623 90 175 4.0 9.0 0.00 0.00 0.00 33 1016.0
20260905130850 91 224 3.0 7.0 0.00 0.00 0.00 31 1016.1
20260905130603 90 253 3.0 7.0 0.00 0.00 0.00 32 1016.1
20260905125838 91 314 3.0 7.0 0.00 0.00 0.00 34 1016.2
20260905125816 91 214 3.0 7.0 0.00 0.00 0.00 32 1016.2
20260905124826 90 234 4.0 9.0 0.00 0.00 0.00 33 1016.2
20260905124320 89 227 4.0 9.0 0.00 0.00 0.00 32 1016.3
20260905123814 89 288 4.0 8.0 0.00 0.00 0.00 34 1016.4
20260905123307 89 255 4.0 8.0 0.00 0.00 0.00 36 1016.5
20260905123246 89 261 4.0 8.0 0.00 0.00 0.00 36 1016.5
20260905122256 89 236 4.0 7.0 0.00 0.00 0.00 38 1016.5
20260905121749 89 236 4.0 8.0 0.00 0.00 0.00 36 1016.6
20260905121244 89 266 4.0 8.0 0.00 0.00 0.00 37 1016.6
20260905120738 89 238 4.0 8.0 0.00 0.00 0.00 34 1016.6
20260905120232 88 215 4.0 7.0 0.00 0.00 0.00 36 1016.9
20260905115725 88 285 3.0 7.0 0.00 0.00 0.00 38 1017.0
20260905115220 88 248 4.0 7.0 0.00 0.00 0.00 39 1017.0
20260905114715 88 268 4.0 7.0 0.00 0.00 0.00 39 1017.1
20260905114214 88 224 4.0 7.0 0.00 0.00 0.00 39 1017.1
20260905113714 88 250 4.0 8.0 0.00 0.00 0.00 42 1017.2
20260905113214 88 240 5.0 8.0 0.00 0.00 0.00 42 1017.2
20260905112712 88 251 4.0 7.0 0.00 0.00 0.00 39 1017.2
20260905112212 88 266 3.0 6.0 0.00 0.00 0.00 37 1017.2
20260905111714 87 257 3.0 6.0 0.00 0.00 0.00 35 1017.2
20260905111214 87 266 4.0 6.0 0.00 0.00 0.00 41 1017.3
20260905110712 87 269 4.0 6.0 0.00 0.00 0.00 38 1017.3
20260905110212 87 250 5.0 6.0 0.00 0.00 0.00 39 1017.3
20260905105712 87 259 4.0 6.0 0.00 0.00 0.00 38 1017.3
20260905105212 87 255 3.0 6.0 0.00 0.00 0.00 36 1017.4
20260905104935 87 283 4.0 6.0 0.00 0.00 0.00 41 1017.4
20260905104210 87 243 3.0 6.0 0.00 0.00 0.00 42 1017.5
20260905103710 86 259 3.0 6.0 0.00 0.00 0.00 41 1017.6
20260905103210 86 283 3.0 5.0 0.00 0.00 0.00 41 1017.6
20260905102707 86 291 3.0 5.0 0.00 0.00 0.00 44 1017.6
20260905102209 86 258 3.0 5.0 0.00 0.00 0.00 49 1017.7
20260905101703 85 243 3.0 5.0 0.00 0.00 0.00 49 1017.8
20260905101202 85 281 3.0 5.0 0.00 0.00 0.00 46 1017.8
20260905100702 85 264 3.0 5.0 0.00 0.00 0.00 49 1017.9
20260905100202 85 292 3.0 6.0 0.00 0.00 0.00 47 1018.0
20260905095659 85 280 3.0 6.0 0.00 0.00 0.00 50 1018.0
20260905095426 85 316 3.0 6.0 0.00 0.00 0.00 48 1018.1
20260905094700 84 284 4.0 6.0 0.00 0.00 0.00 48 1018.1
20260905094646 84 233 4.0 7.0 0.00 0.00 0.00 47 1018.1
20260905093656 84 258 4.0 7.0 0.00 0.00 0.00 51 1018.1
20260905093421 84 299 4.0 6.0 0.00 0.00 0.00 50 1018.2
20260905092655 84 296 4.0 7.0 0.00 0.00 0.00 51 1018.2
20260905092154 83 256 4.0 8.0 0.00 0.00 0.00 48 1018.3
20260905091911 83 267 4.0 8.0 0.00 0.00 0.00 51 1018.3
20260905091152 83 281 4.0 8.0 0.00 0.00 0.00 49 1018.4
20260905090651 83 251 3.0 8.0 0.00 0.00 0.00 52 1018.5
20260905090632 83 243 3.0 6.0 0.00 0.00 0.00 49 1018.4
20260905085651 83 252 3.0 7.0 0.00 0.00 0.00 50 1018.4
20260905085148 83 290 3.0 7.0 0.00 0.00 0.00 54 1018.4
20260905084918 83 341 3.0 6.0 0.00 0.00 0.00 55 1018.5
20260905084147 82 219 3.0 6.0 0.00 0.00 0.00 56 1018.5
20260905083647 82 267 2.0 6.0 0.00 0.00 0.00 56 1018.5
20260905083147 82 294 3.0 6.0 0.00 0.00 0.00 57 1018.6
20260905083132 82 272 3.0 6.0 0.00 0.00 0.00 59 1018.6
20260905082407 82 296 3.0 6.0 0.00 0.00 0.00 62 1018.6
20260905081646 81 302 3.0 6.0 0.00 0.00 0.00 61 1018.6
20260905081146 81 313 2.0 5.0 0.00 0.00 0.00 63 1018.6
20260905080642 81 352 2.0 5.0 0.00 0.00 0.00 64 1018.6
20260905080142 81 271 2.0 5.0 0.00 0.00 0.00 62 1018.6
20260905075642 81 269 2.0 5.0 0.00 0.00 0.00 62 1018.5
20260905075400 81 231 2.0 4.0 0.00 0.00 0.00 68 1018.5
20260905074642 80 255 2.0 5.0 0.00 0.00 0.00 65 1018.5
20260905074141 80 262 3.0 5.0 0.00 0.00 0.00 66 1018.5
20260905073641 80 272 3.0 6.0 0.00 0.00 0.00 65 1018.5
20260905073139 80 281 3.0 6.0 0.00 0.00 0.00 64 1018.5
20260905072638 80 287 2.0 5.0 0.00 0.00 0.00 63 1018.5
20260905072136 80 273 2.0 6.0 0.00 0.00 0.00 65 1018.4
20260905071631 79 221 2.0 6.0 0.00 0.00 0.00 65 1018.4
20260905071128 79 214 3.0 6.0 0.00 0.00 0.00 67 1018.4
20260905070628 79 208 3.0 6.0 0.00 0.00 0.00 68 1018.4
20260905070354 79 239 3.0 6.0 0.00 0.00 0.00 68 1018.4
20260905065626 79 229 3.0 5.0 0.00 0.00 0.00 66 1018.5
20260905065126 78 284 3.0 6.0 0.00 0.00 0.00 68 1018.4
20260905064624 78 225 3.0 6.0 0.00 0.00 0.00 68 1018.5
20260905064559 78 233 3.0 6.0 0.00 0.00 0.00 69 1018.4
20260905063623 77 233 4.0 6.0 0.00 0.00 0.00 69 1018.4
20260905063123 77 272 5.0 9.0 0.00 0.00 0.00 71 1018.4
20260905062621 77 255 5.0 9.0 0.00 0.00 0.00 72 1018.5
20260905062342 78 260 5.0 8.0 0.00 0.00 0.00 71 1018.4
20260905061621 78 264 5.0 8.0 0.00 0.00 0.00 72 1018.4
20260905061119 79 273 4.0 8.0 0.00 0.00 0.00 68 1018.4
20260905060619 80 257 2.0 6.0 0.00 0.00 0.00 62 1018.4
20260905060339 80 252 1.0 3.0 0.00 0.00 0.00 60 1018.4
20260905055619 80 231 1.0 3.0 0.00 0.00 0.00 60 1018.4
20260905055119 81 90 0.0 2.0 0.00 0.00 0.00 57 1018.4
20260905054619 81 90 0.0 1.0 0.00 0.00 0.00 57 1018.3
20260905054112 80 90 0.0 1.0 0.00 0.00 0.00 58 1018.3
20260905053605 80 89 1.0 1.0 0.00 0.00 0.00 58 1018.3
20260905053059 79 89 1.0 1.0 0.00 0.00 0.00 58 1018.4
20260905052552 79 89 1.0 1.0 0.00 0.00 0.00 58 1018.3
20260905052046 78 89 0.0 2.0 0.00 0.00 0.00 58 1018.2
20260905052025 78 89 0.0 2.0 0.00 0.00 0.00 58 1018.3
20260905051035 78 89 1.0 2.0 0.00 0.00 0.00 58 1018.3
20260905050529 78 89 1.0 2.0 0.00 0.00 0.00 58 1018.3
20260905050023 77 90 0.0 2.0 0.00 0.00 0.00 58 1018.3
20260905045516 77 75 0.0 2.0 0.00 0.00 0.00 60 1018.3
20260905045011 76 75 0.0 3.0 0.00 0.00 0.00 60 1018.2
20260905044505 76 75 0.0 3.0 0.00 0.00 0.00 61 1018.2
20260905043958 76 82 1.0 3.0 0.00 0.00 0.00 61 1018.1
20260905043452 75 82 1.0 3.0 0.00 0.00 0.00 62 1018.1
20260905042946 75 92 1.0 3.0 0.00 0.00 0.00 62 1018.1
20260905042448 75 93 1.0 2.0 0.00 0.00 0.00 62 1018.0
20260905042204 75 93 1.0 3.0 0.00 0.00 0.00 62 1017.9